Temperature
20 20 20 20 20 19 19 19 18 18 17 17 17 16 16 16 15 15 15 15 15 14 14 14 14 14 14 14 14 14 14 15 15 15 15 15 15 15 15 15 15 15 15
20 20 20 20 20 19 19 19 18 18 18 17 17 16 16 16 15 15 15 15 15 14 14 14 14 14 14 14 14 14 14 14 14 14 15 15 15 15 15 15 15 15 15
20 20 20 20 20 19 19 19 18 18 18 17 17 16 16 16 15 15 15 15 15 15 14 14 14 14 14 14 14 14 14 14 14 14 14 14 14 15 15 15 15 15 15
21 20 20 20 20 19 19 19 18 18 18 17 17 16 16 16 15 15 15 15 15 15 14 14 14 14 14 14 14 14 14 14 14 14 14 14 14 14 14 15 15 15 15
20 20 20 20 20 19 19 19 18 18 18 17 17 16 16 16 16 15 15 15 15 15 14 14 14 14 14 14 14 14 14 14 14 14 14 14 14 14 14 14 15 15 15
20 20 20 20 20 19 19 19 18 18 18 17 17 16 16 16 16 15 15 15 15 15 14 14 14 14 14 14 14 14 14 14 14 14 14 14 14 14 14 14 14 14 15
20 20 20 20 20 19 19 19 18 18 18 17 17 17 16 16 16 16 15 15 15 15 15 14 14 14 14 14 14 14 14 14 14 14 14 14 14 14 14 14 14 14 14
20 20 20 20 20 19 19 19 18 18 18 17 17 17 16 16 16 16 15 15 15 15 15 15 14 14 14 14 14 14 14 14 14 14 14 14 14 14 14 14 14 14 14
20 20 20 20 19 19 19 19 18 18 18 17 17 17 16 16 16 16 15 15 15 15 15 15 15 15 14 14 14 14 14 14 14 14 14 14 14 14 14 14 14 14 14
20 20 20 19 19 19 19 18 18 18 17 17 17 17 16 16 16 16 16 15 15 15 15 15 15 15 15 14 14 14 14 14 14 14 14 14 14 14 14 14 14 14 14
19 19 19 19 19 19 18 18 18 18 17 17 17 17 16 16 16 16 16 15 15 15 15 15 15 15 15 15 15 14 14 14 14 14 14 14 14 14 14 14 14 14 14
19 19 19 19 19 19 18 18 18 17 17 17 17 16 16 16 16 16 15 15 15 15 15 15 15 15 15 15 15 14 14 14 14 14 14 14 14 14 14 14 14 14 14
19 19 19 19 19 18 18 18 18 17 17 17 17 16 16 16 16 16 15 15 15 15 15 15 15 14 14 14 14 14 14 14 14 14 14 14 14 14 14 14 14 14 13
19 19 18 18 18 18 18 18 18 17 17 17 17 16 16 16 16 15 15 15 15 15 15 14 14 14 14 14 14 14 14 14 14 14 14 14 14 14 14 14 14 13 13
18 18 18 18 18 18 18 17 17 17 17 17 16 16 16 16 16 15 15 15 15 15 14 14 14 14 14 14 14 14 14 14 14 14 14 14 14 14 14 14 14 13 13
18 18 18 18 18 18 17 17 17 17 17 16 16 16 16 16 15 15 15 15 15 15 14 14 14 14 14 14 14 14 14 14 14 14 14 14 14 14 14 14 13 13 13
18 18 18 18 17 17 17 17 17 17 16 16 16 16 15 15 15 15 15 15 14 14 14 14 14 14 14 13 13 13 13 13 14 14 14 14 14 14 14 13 13 13 13
18 18 17 17 17 17 17 17 16 16 16 16 15 15 15 15 15 15 14 14 14 14 14 14 14 13 13 13 13 13 13 13 13 13 13 13 14 13 13 13 13 13 13
18 17 17 17 17 17 16 16 16 15 15 15 15 15 15 15 14 14 14 14 14 14 14 13 13 13 13 13 13 13 13 13 13 13 13 13 13 13 13 13 13 13 13
17 17 17 16 16 16 16 16 15 15 15 14 14 14 14 14 14 14 14 13 13 13 13 13 13 13 13 13 13 12 12 12 12 13 13 13 13 13 13 13 13 13 13
17 17 16 16 16 15 15 15 15 14 14 14 14 14 14 13 13 13 13 13 13 13 13 13 13 13 13 12 12 12 12 12 12 12 12 12 12 12 12 12 12 12 12
16 16 16 15 15 15 15 14 14 14 14 13 13 13 13 13 13 13 13 13 12 12 12 12 12 12 12 12 12 12 12 12 11 12 12 12 12 12 12 12 12 12 12
16 15 15 15 14 14 14 14 13 13 13 13 13 13 13 12 12 12 12 12 12 12 12 12 12 12 12 12 11 11 11 11 11 11 11 11 11 11 11 11 11 11 11
15 15 14 14 14 13 13 13 13 13 12 12 12 12 12 12 12 12 12 11 11 11 11 11 11 11 11 11 11 11 11 11 11 11 11 11 11 11 11 11 11 11 11
14 14 14 13 13 13 12 12 12 12 12 12 12 11 11 11 11 11 11 11 11 10 10 10 10 10 10 10 10 10 10 10 10 10 10 10 10 10 10 10 10 10 10
13 13 13 13 12 12 12 12 12 11 11 11 11 11 11 11 11 10 10 10 10 10 10 10 10 10 10 10 10 10 10 10 10 9 10 10 10 10 10 10 10 10 10
Wind_Speed
5 5 6 7 7 6 7 7 6 5 5 3 3 3 2 1 2 1 2 3 3 4 3 2 3 3 2 2 2 2 3 2 2 3 4 4 4 3 2 1 1 1 1
4 4 4 5 6 6 7 6 6 5 5 3 3 2 2 1 0 1 2 1 2 2 2 2 2 2 2 3 3 2 2 2 2 2 2 3 5 4 4 3 1 1 1
8 6 5 5 6 7 7 7 7 6 5 4 3 3 3 3 3 2 2 2 1 1 1 1 1 1 1 1 2 1 1 1 2 1 3 2 1 3 4 3 3 2 1
7 6 6 6 6 7 6 7 6 5 4 5 5 4 3 1 2 2 2 3 2 1 0 1 1 1 1 1 1 1 1 1 1 2 1 2 3 1 2 4 3 3 2
8 8 7 7 6 6 6 7 6 5 4 5 5 5 3 2 1 1 1 2 2 2 1 1 1 1 1 1 1 1 1 1 1 0 0 1 1 1 2 1 3 3 3
7 7 5 5 5 5 6 6 6 4 4 4 4 4 4 2 1 1 1 2 2 2 3 2 1 1 1 1 1 0 1 1 1 1 1 1 1 1 2 2 1 2 3
8 7 6 6 5 6 6 6 6 4 4 4 4 4 3 3 2 1 1 1 1 2 3 2 2 1 1 1 1 0 1 0 0 1 1 1 2 2 2 2 1 1 2
7 7 7 7 6 6 6 6 6 4 4 4 3 3 3 2 1 1 1 2 2 3 3 2 2 2 1 1 0 0 1 0 1 1 1 1 1 2 2 3 3 0 2
6 6 5 5 5 6 6 6 6 4 4 4 3 3 2 2 2 1 1 1 1 2 2 2 2 2 2 1 0 0 1 0 0 1 1 1 1 1 2 2 3 3 1
5 5 5 4 4 4 4 4 5 5 4 3 3 2 2 2 2 1 1 1 2 1 1 2 2 2 2 2 1 1 1 0 1 1 1 1 1 1 1 2 2 3 4
6 5 4 3 3 3 3 3 3 3 3 3 2 2 2 2 1 1 1 2 2 2 2 2 2 2 2 2 1 1 1 1 2 2 1 2 2 1 1 1 1 2 3
5 5 4 4 3 3 2 2 2 2 3 3 2 2 2 1 1 1 2 1 2 2 2 1 1 2 1 1 1 1 1 1 2 2 2 3 2 1 1 1 1 2 3
5 4 4 3 3 2 2 2 2 2 2 2 2 1 1 1 2 2 2 1 1 2 2 1 2 2 2 2 2 1 2 2 2 2 2 3 1 2 1 1 2 2 2
5 5 3 2 2 2 2 2 1 1 2 2 2 1 1 2 2 2 2 1 1 1 1 1 2 2 2 2 2 1 2 2 3 3 3 3 3 3 3 2 2 2 2
5 4 3 2 1 1 1 1 0 1 2 2 1 1 1 1 1 1 2 1 1 2 2 1 2 2 2 2 2 2 2 2 3 3 3 3 3 4 3 3 3 3 2
5 4 3 3 2 1 1 1 1 1 2 2 1 0 1 1 1 2 2 2 2 3 2 2 2 3 3 4 3 1 1 2 3 4 4 4 3 3 4 4 4 5 4
5 4 3 2 1 1 2 2 1 2 2 1 0 1 1 1 2 2 2 2 3 3 3 3 3 4 5 6 5 3 1 2 3 4 4 4 3 3 3 4 4 5 7
5 4 3 2 1 2 2 2 3 3 2 2 1 1 1 1 2 2 2 3 3 3 3 4 4 4 6 7 6 5 2 2 3 4 4 4 5 4 4 3 3 4 5
5 4 3 3 3 3 2 4 3 3 2 2 2 2 1 1 1 2 3 3 2 3 4 4 4 4 7 8 7 5 2 3 4 4 4 4 5 6 4 3 4 5 5
5 4 4 4 4 2 3 5 4 3 2 2 2 2 1 1 2 3 3 2 2 3 4 4 4 4 5 8 8 5 2 3 4 4 5 6 6 6 5 3 4 6 6
5 5 5 4 2 2 4 4 3 2 3 2 2 2 2 2 2 2 2 2 2 3 4 4 5 5 6 7 8 7 3 4 4 4 4 5 8 8 7 5 5 8 7
5 5 5 3 2 3 4 3 2 3 2 2 2 3 3 3 3 2 3 3 2 3 4 4 6 5 6 6 7 8 7 6 5 6 6 6 10 10 9 7 8 9 6
4 4 4 3 3 2 3 2 2 2 2 3 3 3 3 3 2 2 3 3 3 3 4 4 5 6 5 6 9 9 8 8 6 6 9 10 11 9 8 9 10 7 4
4 3 4 3 2 2 1 0 2 1 2 2 3 3 3 4 4 3 2 3 3 4 4 5 6 6 6 6 5 5 6 7 6 6 8 9 10 8 8 7 6 5 5
2 3 3 2 0 1 1 2 1 1 2 2 3 3 3 4 4 4 4 4 5 5 5 5 5 5 7 8 10 7 6 5 6 5 4 3 4 5 5 5 5 4 4
3 3 2 1 0 1 2 3 2 1 1 2 3 3 3 4 4 4 6 7 7 10 11 10 8 7 9 12 12 11 11 11 9 5 4 6 6 7 7 7 6 5 6
Wind_Direction
171 154 149 147 143 142 139 138 134 131 118 104 100 88 72 53 45 41 81 86 70 53 57 32 8 12 17 358 1 18 22 5 12 38 8 354 360 12 7 10 28 51 107
153 158 152 146 147 150 147 142 142 143 137 133 137 139 138 129 99 359 31 59 60 32 53 49 21 8 13 10 14 36 32 358 29 81 59 10 352 351 1 3 16 29 60
173 175 165 160 150 152 157 154 153 150 143 130 103 77 57 37 20 4 336 312 322 358 42 45 32 19 39 356 347 43 85 19 359 68 124 118 263 319 338 352 5 9 21
172 171 167 164 164 165 158 147 148 146 144 131 124 125 126 154 237 247 273 301 306 291 334 1 22 20 9 328 320 74 118 112 17 360 55 163 172 158 336 336 345 352 354
169 167 166 167 163 155 149 146 141 143 144 136 138 133 138 190 245 285 308 320 320 296 284 313 6 3 332 315 333 25 81 123 141 123 34 63 69 134 159 293 326 345 335
164 157 149 136 131 132 135 135 138 145 146 138 142 148 160 172 170 318 316 316 312 313 307 297 309 319 321 301 291 322 59 118 140 146 137 154 151 186 167 202 278 311 312
151 145 142 141 142 140 140 139 144 150 151 139 143 156 165 166 182 223 241 270 293 293 293 299 290 292 278 272 278 355 337 357 165 204 204 197 207 190 169 162 213 303 314
150 157 163 160 157 155 149 145 152 159 166 158 161 175 170 163 188 205 205 232 244 260 276 282 282 281 287 311 351 42 303 177 213 242 217 215 241 194 177 171 161 100 342
146 151 153 159 165 164 164 161 158 161 174 180 176 182 183 179 197 211 213 252 271 282 290 289 305 311 317 325 12 342 292 299 257 255 253 244 260 226 205 180 167 160 193
141 143 146 155 160 165 163 156 159 174 179 174 178 177 192 194 190 170 236 286 296 306 306 320 320 326 332 331 4 338 303 316 290 266 275 280 274 263 229 184 178 165 169
149 148 149 154 144 131 141 152 167 172 183 184 180 158 184 195 173 169 247 272 302 307 293 292 310 324 322 324 346 316 328 339 324 317 289 289 281 259 256 198 173 175 163
144 138 132 120 116 122 124 139 164 179 191 182 165 169 180 182 188 229 258 283 308 303 288 290 305 309 311 320 324 298 303 292 305 302 302 295 292 276 262 220 210 203 188
120 113 110 116 129 137 136 132 145 171 168 150 141 142 168 194 227 241 253 272 298 321 336 332 295 289 288 299 297 287 289 278 273 267 259 268 256 274 269 234 227 224 210
128 119 117 124 134 139 141 145 149 155 143 133 131 147 212 220 234 244 244 251 268 300 316 313 294 290 283 276 293 305 302 296 293 279 259 248 226 231 238 227 225 219 206
117 123 136 134 114 105 123 151 126 96 110 105 102 252 268 269 289 276 262 272 281 282 277 308 317 311 293 283 286 278 294 298 298 298 279 262 244 239 228 215 211 199 204
126 128 127 118 104 127 148 114 92 103 102 106 118 352 29 16 331 298 284 296 296 294 299 295 294 298 298 304 293 271 271 284 290 289 287 280 271 273 261 239 219 198 197
137 128 126 129 138 146 136 133 154 111 96 94 32 14 25 341 316 330 333 301 291 296 297 289 284 280 284 294 295 278 253 272 277 278 278 282 275 266 260 271 270 246 229
130 126 119 105 85 79 93 95 86 85 78 52 1 339 343 316 318 334 312 296 295 288 283 284 277 278 290 291 286 283 261 273 279 275 263 259 267 259 246 246 259 261 253
138 135 131 115 85 67 87 85 68 61 53 12 331 311 285 307 327 315 302 290 297 297 285 280 278 278 288 291 283 273 265 276 284 287 284 267 264 270 254 233 248 265 269
119 115 105 87 77 55 77 78 64 50 13 313 298 304 310 283 276 274 281 292 286 287 297 292 284 279 284 292 288 271 238 261 276 286 291 280 270 280 261 233 237 251 259
109 104 97 89 83 72 81 73 48 357 302 308 335 345 327 297 282 287 292 299 299 309 312 306 300 292 285 294 292 281 239 240 256 266 273 274 274 273 268 254 242 248 249
98 99 95 80 54 67 84 70 4 312 329 357 2 345 331 325 339 321 309 305 297 302 303 304 307 302 295 292 291 286 267 259 249 257 259 263 272 272 268 262 258 260 251
107 100 103 84 44 41 84 81 311 321 6 18 357 338 335 332 333 321 310 314 311 301 298 298 298 302 303 300 297 293 285 276 265 264 264 267 271 274 269 261 261 262 241
110 106 101 88 37 6 36 345 303 344 37 10 339 333 331 322 321 315 306 303 297 295 298 297 293 296 300 298 299 297 292 285 280 278 278 276 271 265 260 265 260 244 231
112 113 116 116 55 351 351 335 337 34 27 344 326 326 323 313 310 306 288 281 269 265 273 273 273 282 291 287 288 292 288 279 273 286 290 282 278 270 260 258 254 245 237
118 110 105 106 17 355 338 328 329 26 23 329 319 314 313 311 309 309 311 297 287 293 287 278 278 274 275 289 292 290 286 283 279 278 269 265 258 257 253 250 251 245 237
Height
1525 1527 1528 1529 1531 1532 1533 1533 1534 1534 1534 1535 1535 1535 1534 1534 1533 1532 1531 1530 1529 1528 1526 1525 1523 1522 1521 1520 1520 1519 1518 1518 1517 1517 1517 1517 1517 1517 1517 1517 1518 1518 1519
1525 1526 1528 1529 1530 1531 1532 1533 1534 1534 1535 1535 1535 1535 1534 1534 1533 1532 1532 1530 1529 1528 1526 1525 1523 1522 1521 1520 1520 1519 1518 1518 1517 1517 1517 1517 1518 1517 1517 1517 1517 1518 1518
1523 1525 1527 1528 1529 1531 1532 1533 1534 1535 1535 1535 1535 1535 1534 1534 1533 1533 1532 1531 1529 1528 1527 1525 1524 1522 1522 1521 1520 1519 1518 1518 1518 1518 1518 1518 1517 1517 1517 1517 1517 1517 1518
1522 1524 1525 1527 1529 1530 1532 1533 1534 1535 1535 1535 1535 1535 1534 1534 1533 1533 1532 1531 1529 1528 1527 1525 1524 1523 1522 1521 1520 1519 1519 1518 1518 1518 1518 1518 1518 1518 1517 1517 1517 1517 1517
1521 1523 1525 1526 1528 1530 1531 1533 1534 1534 1535 1535 1535 1535 1534 1534 1533 1533 1532 1531 1530 1528 1527 1526 1524 1523 1522 1521 1520 1519 1519 1518 1518 1518 1517 1517 1517 1517 1517 1517 1517 1517 1517
1521 1523 1525 1526 1528 1530 1531 1532 1533 1534 1534 1535 1535 1534 1534 1534 1533 1533 1532 1531 1530 1528 1527 1526 1525 1524 1522 1521 1520 1520 1519 1518 1518 1518 1517 1517 1517 1517 1517 1516 1516 1516 1517
1520 1522 1524 1526 1527 1529 1530 1532 1533 1533 1534 1534 1534 1534 1534 1533 1533 1532 1531 1531 1530 1528 1527 1526 1525 1524 1523 1522 1521 1520 1519 1518 1518 1517 1517 1517 1516 1516 1516 1516 1516 1516 1516
1520 1522 1524 1525 1527 1529 1530 1531 1532 1533 1533 1534 1534 1534 1534 1533 1533 1532 1531 1530 1529 1528 1527 1526 1525 1524 1523 1522 1521 1520 1519 1518 1518 1517 1517 1516 1516 1516 1515 1516 1516 1516 1516
1521 1522 1524 1526 1527 1528 1530 1531 1531 1532 1533 1533 1533 1534 1533 1533 1532 1532 1531 1530 1529 1528 1527 1526 1525 1524 1523 1522 1521 1520 1519 1518 1518 1517 1516 1516 1515 1515 1515 1515 1515 1516 1515
1521 1523 1524 1526 1527 1528 1529 1530 1531 1532 1532 1532 1533 1533 1533 1532 1532 1531 1531 1530 1529 1528 1527 1526 1525 1524 1523 1522 1521 1520 1519 1518 1517 1517 1516 1515 1515 1514 1514 1514 1514 1514 1514
1521 1523 1525 1526 1527 1528 1529 1530 1530 1531 1531 1532 1532 1532 1532 1532 1531 1531 1530 1529 1528 1528 1527 1526 1525 1524 1523 1521 1520 1519 1518 1518 1517 1516 1515 1514 1514 1513 1513 1513 1513 1513 1513
1522 1523 1525 1526 1527 1528 1528 1529 1529 1530 1530 1531 1531 1531 1531 1531 1530 1530 1529 1528 1528 1527 1526 1525 1524 1523 1522 1521 1520 1519 1518 1517 1516 1515 1514 1513 1512 1512 1512 1511 1511 1511 1511
1522 1524 1525 1526 1527 1527 1528 1528 1529 1529 1529 1530 1530 1530 1530 1529 1529 1529 1528 1527 1526 1525 1525 1524 1523 1522 1521 1520 1519 1518 1517 1516 1515 1514 1513 1512 1511 1510 1510 1510 1509 1509 1509
1522 1524 1525 1526 1527 1527 1528 1528 1528 1528 1529 1529 1529 1528 1528 1528 1528 1527 1527 1526 1525 1524 1523 1522 1521 1521 1520 1519 1518 1517 1516 1515 1514 1513 1512 1511 1510 1509 1508 1508 1507 1507 1507
1523 1524 1525 1526 1527 1527 1527 1528 1528 1528 1528 1528 1527 1527 1527 1527 1527 1526 1525 1524 1524 1523 1522 1521 1520 1519 1518 1517 1516 1515 1514 1513 1512 1511 1510 1509 1508 1508 1507 1506 1505 1505 1504
1523 1524 1525 1526 1526 1526 1527 1527 1527 1527 1527 1527 1526 1526 1525 1525 1524 1524 1523 1523 1522 1521 1520 1519 1518 1517 1516 1515 1514 1513 1512 1511 1510 1509 1508 1507 1506 1505 1504 1504 1503 1503 1502
1522 1523 1524 1525 1526 1526 1526 1526 1526 1526 1526 1526 1525 1524 1524 1523 1522 1522 1521 1520 1519 1519 1518 1517 1515 1514 1514 1513 1512 1511 1510 1509 1507 1506 1505 1504 1503 1503 1502 1501 1500 1500 1499
1521 1523 1524 1525 1525 1526 1526 1526 1526 1525 1525 1524 1523 1523 1522 1521 1520 1519 1519 1518 1517 1516 1515 1514 1513 1512 1511 1510 1509 1508 1507 1506 1504 1503 1502 1501 1500 1499 1499 1498 1497 1496 1496
1521 1523 1524 1524 1525 1525 1525 1525 1525 1524 1523 1523 1522 1521 1520 1519 1518 1517 1516 1515 1514 1513 1512 1511 1510 1509 1508 1507 1506 1505 1503 1502 1501 1500 1499 1498 1497 1496 1495 1494 1493 1492 1492
1521 1522 1523 1524 1524 1524 1524 1524 1523 1523 1522 1521 1520 1519 1518 1517 1516 1515 1514 1513 1512 1511 1510 1508 1507 1506 1504 1503 1502 1501 1499 1498 1497 1496 1494 1494 1493 1492 1491 1490 1489 1488 1487
1521 1522 1522 1523 1523 1523 1523 1522 1521 1521 1520 1519 1518 1517 1516 1515 1514 1513 1512 1510 1509 1508 1506 1505 1504 1502 1501 1500 1498 1497 1495 1494 1492 1491 1490 1489 1488 1487 1486 1485 1484 1483 1483
1520 1521 1521 1522 1522 1522 1521 1521 1520 1519 1518 1517 1516 1515 1514 1513 1511 1510 1509 1507 1506 1504 1502 1501 1499 1498 1497 1496 1494 1493 1491 1490 1488 1486 1485 1484 1483 1482 1481 1480 1479 1479 1478
1519 1520 1520 1520 1521 1520 1520 1519 1518 1517 1516 1515 1514 1512 1511 1510 1509 1507 1505 1504 1502 1500 1498 1497 1495 1493 1492 1491 1490 1488 1486 1485 1483 1481 1480 1479 1477 1476 1475 1474 1474 1473 1472
1518 1518 1519 1519 1519 1519 1518 1517 1516 1515 1514 1513 1511 1510 1508 1507 1505 1504 1502 1501 1499 1497 1495 1493 1491 1489 1488 1486 1484 1482 1481 1479 1477 1475 1474 1472 1471 1470 1469 1468 1468 1467 1466
1516 1517 1517 1517 1517 1517 1516 1515 1514 1513 1511 1510 1508 1507 1505 1503 1502 1500 1499 1497 1496 1494 1492 1490 1487 1485 1482 1481 1480 1477 1475 1473 1471 1469 1467 1465 1464 1463 1462 1462 1461 1460 1460
1515 1515 1515 1515 1515 1514 1513 1512 1511 1510 1508 1507 1505 1503 1502 1500 1498 1496 1494 1492 1491 1489 1487 1485 1484 1481 1479 1476 1474 1472 1470 1467 1465 1463 1460 1459 1457 1456 1455 1455 1454 1454 1453